Weather History for KSHN - January, 2014

Change the Weather History Date:

Tuesday, January 7, 2014

  Actual Average Record
Temperature  
Mean Temperature 41 °F -  
Max Temperature 45 °F 42 °F 57 °F (2002)
Min Temperature 37 °F 30 °F 12 °F (1973)
Degree Days  
Heating Degree Days 24    
Moisture  
Dew Point 40 °F    
Average Humidity 95    
Maximum Humidity 100    
Minimum Humidity 93    
Precipitation  
Precipitation 0.54 in - - ()
Sea Level Pressure  
Sea Level Pressure 30.03 in    
Wind  
Wind Speed 1 mph (NNW)    
Max Wind Speed 7 mph    
Max Gust Speed -    
Visibility 3 miles    
Events Rain    
Averages and records for this station are not official NWS values.
T = Trace of Precipitation, MM = Missing Value Source: NWS Daily Summary

Daily Weather History Graph

Daily Weather History Graph

Search for Another Location

Airport or City:

Trip Planner

Search our weather history database for the weather conditions in past years. The results will help you decide how hot, cold, wet, or windy it might be!

Date:

Astronomy

Jan. 07, 2014 Rise Set
Actual Time 7:58 AM PST 4:39 PM PST
Civil Twilight 7:23 AM PST 5:14 PM PST
Nautical Twilight 6:44 AM PST 5:53 PM PST
Astronomical Twilight 6:07 AM PST 6:30 PM PST
Moon 11:19 AM PST (1/7) No Moon Set
Length of Visible Light 9h 51m
Length of Day
8h 41m
Waxing Crescent, 46% of the Moon is Illuminated
Jan 7
Waxing Crescent
Jan 7
First Quarter
Jan 15
Full
Jan 23
Last Quarter
Jan 30
New

Hourly Weather History & Observations

Time (PST) Temp. Windchill Dew Point Humidity Pressure Visibility Wind Dir Wind Speed Gust Speed Precip Events Conditions
12:08 AM 37.9 °F - 37.0 °F 97% 30.12 in 3.0 mi Calm Calm - 0.01 in Rain Light Rain
12:22 AM 37.9 °F - 37.0 °F 97% 30.11 in 2.0 mi Calm Calm - 0.03 in Rain Light Rain
12:42 AM 37.9 °F - 37.0 °F 97% 30.11 in 1.8 mi Calm Calm - 0.05 in Rain Light Rain
12:49 AM 37.4 °F - 37.4 °F 100% 30.10 in 2.0 mi Calm Calm - 0.06 in Rain Light Rain
12:53 AM 37.9 °F - 37.0 °F 97% 30.12 in 2.5 mi Calm Calm - 0.06 in Rain Light Rain
1:12 AM 39.0 °F - 37.0 °F 93% 30.10 in 2.5 mi Calm Calm - 0.02 in Rain Light Rain
1:20 AM 39.0 °F - 37.0 °F 93% 30.10 in 2.5 mi Calm Calm - 0.02 in Rain Light Rain
1:35 AM 37.9 °F - 37.0 °F 97% 30.10 in 1.5 mi Calm Calm - 0.03 in Rain Light Rain
1:53 AM 39.0 °F - 37.0 °F 93% 30.12 in 1.8 mi Calm Calm - 0.03 in Rain Light Rain
2:21 AM 39.0 °F - 37.9 °F 96% 30.10 in 1.5 mi Calm Calm - 0.02 in Rain Light Rain
2:29 AM 39.0 °F - 37.0 °F 93% 30.10 in 1.8 mi Calm Calm - 0.02 in Rain Light Rain
2:53 AM 39.0 °F - 37.9 °F 96% 30.11 in 1.5 mi Calm Calm - 0.04 in Rain Light Rain
3:16 AM 39.0 °F - 37.9 °F 96% 30.09 in 1.0 mi Calm Calm - 0.01 in Rain Light Rain
3:25 AM 39.0 °F - 37.0 °F 93% 30.09 in 1.2 mi Calm Calm - 0.01 in Rain Light Rain
3:45 AM 39.0 °F - 37.0 °F 93% 30.08 in 1.2 mi Calm Calm - 0.03 in Rain Light Rain
3:53 AM 39.0 °F - 37.0 °F 93% 30.09 in 1.5 mi Calm Calm - 0.03 in Rain Light Rain
4:03 AM 39.0 °F - 37.9 °F 96% 30.08 in 2.0 mi Calm Calm - 0.00 in Rain Light Rain
4:08 AM 37.9 °F - 37.9 °F 100% 30.08 in 1.5 mi Calm Calm - 0.01 in Rain Light Rain
4:53 AM 39.0 °F - 37.9 °F 96% 30.07 in 1.8 mi Calm Calm - 0.03 in Rain Light Rain
4:55 AM 39.0 °F - 37.9 °F 96% 30.06 in 2.0 mi Calm Calm - 0.00 in Rain Light Rain
5:01 AM 39.0 °F - 37.9 °F 96% 30.06 in 2.0 mi Calm Calm - 0.00 in Rain Light Rain
5:49 AM 39.2 °F - 37.4 °F 93% 30.04 in 4.0 mi Calm Calm - 0.03 in Rain Light Rain
5:53 AM 39.9 °F 36.7 °F 37.9 °F 93% 30.05 in 4.0 mi NE 4.6 mph - 0.03 in   Overcast
6:53 AM 39.9 °F 36.7 °F 39.0 °F 97% 30.03 in 3.0 mi NNE 4.6 mph - 0.01 in   Overcast
7:09 AM 39.9 °F 37.8 °F 39.0 °F 97% 30.01 in 2.5 mi North 3.5 mph - 0.00 in Rain Light Rain
7:36 AM 39.9 °F - 39.0 °F 97% 30.02 in 3.0 mi Calm Calm - 0.01 in Rain Light Rain
7:53 AM 39.9 °F - 37.9 °F 93% 30.04 in 2.5 mi Calm Calm - 0.02 in Rain Light Rain
8:09 AM 39.0 °F 36.8 °F 37.9 °F 96% 30.02 in 3.0 mi NW 3.5 mph - 0.00 in Rain Light Rain
8:53 AM 39.9 °F - 39.0 °F 97% 30.04 in 4.0 mi Calm Calm - 0.00 in   Overcast
9:25 AM 39.9 °F 36.7 °F 39.0 °F 97% 30.02 in 2.5 mi NW 4.6 mph - 0.00 in Rain Light Rain
9:35 AM 41.0 °F 38.0 °F 39.0 °F 93% 30.03 in 4.0 mi WNW 4.6 mph - 0.00 in Rain Light Rain
9:46 AM 41.0 °F - 39.9 °F 96% 30.02 in 6.0 mi Calm Calm - 0.00 in   Overcast
9:53 AM 41.0 °F - 39.9 °F 96% 30.04 in 7.0 mi Calm Calm - 0.00 in Rain Light Rain
10:53 AM 43.0 °F - 41.0 °F 93% 30.04 in 10.0 mi Calm Calm - 0.04 in Rain Light Rain
11:12 AM 42.1 °F 40.2 °F 41.0 °F 96% 30.02 in 9.0 mi West 3.5 mph - 0.00 in   Overcast
11:53 AM 44.1 °F - 43.0 °F 96% 30.02 in 9.0 mi Calm Calm - 0.00 in   Overcast
12:53 PM 45.0 °F 42.6 °F 43.0 °F 93% 30.01 in 9.0 mi SE 4.6 mph - 0.01 in Rain Light Rain
1:53 PM 45.0 °F 43.5 °F 43.0 °F 93% 29.98 in 6.0 mi North 3.5 mph - 0.05 in Rain Light Rain
2:21 PM 45.0 °F 42.6 °F 43.0 °F 93% 29.97 in 9.0 mi North 4.6 mph - 0.01 in Rain Light Rain
2:53 PM 44.1 °F 40.8 °F 42.1 °F 93% 29.99 in 3.0 mi NNE 5.8 mph - 0.06 in Rain Rain
2:59 PM 44.1 °F 40.1 °F 42.1 °F 93% 29.98 in 4.0 mi Variable 6.9 mph - 0.01 in Rain Rain
3:07 PM 44.1 °F - 42.1 °F 93% 29.98 in 4.0 mi Calm Calm - 0.02 in Rain Light Rain
3:53 PM 43.0 °F 41.3 °F 42.1 °F 97% 29.99 in 4.0 mi NNW 3.5 mph - 0.04 in Rain Light Rain
4:10 PM 43.0 °F 40.3 °F 41.0 °F 93% 29.98 in 6.0 mi NNW 4.6 mph - 0.00 in   Overcast
4:17 PM 43.0 °F 40.3 °F 41.0 °F 93% 29.98 in 4.0 mi NNW 4.6 mph - 0.00 in Rain Light Rain
4:26 PM 43.0 °F 40.3 °F 41.0 °F 93% 29.98 in 2.5 mi NNW 4.6 mph - 0.00 in Rain Light Rain
4:49 PM 42.8 °F 40.1 °F 42.8 °F 100% 29.98 in 3.0 mi North 4.6 mph - 0.01 in Rain Light Rain
4:53 PM 43.0 °F 40.3 °F 42.1 °F 97% 29.99 in 3.0 mi North 4.6 mph - 0.01 in Rain Light Rain
5:07 PM 43.0 °F 40.3 °F 42.1 °F 97% 29.98 in 2.5 mi North 4.6 mph - 0.00 in Rain Light Rain
5:15 PM 43.0 °F 41.3 °F 41.0 °F 93% 29.98 in 5.0 mi North 3.5 mph - 0.00 in   Overcast
5:53 PM 43.0 °F 41.3 °F 41.0 °F 93% 29.99 in 2.5 mi North 3.5 mph - 0.01 in Rain Light Rain
6:00 PM 43.0 °F 41.3 °F 41.0 °F 93% 29.98 in 3.0 mi North 3.5 mph - 0.00 in Rain Light Rain
6:21 PM 43.0 °F - 41.0 °F 93% 29.97 in 2.5 mi Calm Calm - 0.01 in Rain Light Rain
6:46 PM 42.1 °F - 41.0 °F 96% 29.98 in 3.0 mi Calm Calm - 0.02 in Rain Light Rain
6:53 PM 43.0 °F - 42.1 °F 97% 29.99 in 2.5 mi Calm Calm - 0.02 in Rain Light Rain
7:53 PM 42.1 °F 40.2 °F 41.0 °F 96% 30.00 in 1.2 mi SW 3.5 mph - 0.01 in Rain Light Rain
8:14 PM 42.1 °F - 41.0 °F 96% 29.98 in 1.8 mi Calm Calm - 0.01 in Rain Light Rain
8:53 PM 42.1 °F - 41.0 °F 96% 30.00 in 2.5 mi Calm Calm - 0.02 in Rain Light Rain
9:01 PM 42.1 °F - 41.0 °F 96% 29.98 in 1.0 mi Calm Calm - 0.00 in   Overcast
9:15 PM 42.1 °F - 41.0 °F 96% 29.99 in 1.2 mi Calm Calm - 0.00 in   Overcast
9:50 PM 42.8 °F - 41.0 °F 93% 30.00 in 2.0 mi Calm Calm - 0.00 in   Overcast
10:13 PM 42.1 °F - 41.0 °F 96% 30.00 in 3.0 mi Calm Calm - 0.01 in   Overcast
10:24 PM 42.1 °F - 41.0 °F 96% 30.00 in 1.8 mi Calm Calm - 0.01 in   Overcast
10:53 PM 42.1 °F - 41.0 °F 96% 30.01 in 1.5 mi Calm Calm - 0.02 in Rain Light Rain
11:31 PM 42.1 °F - 41.0 °F 96% 30.00 in 2.0 mi Calm Calm - 0.00 in   Overcast
11:44 PM 42.1 °F - 41.0 °F 96% 30.00 in 3.0 mi Calm Calm - 0.00 in Rain Light Rain
11:53 PM 42.1 °F - 41.0 °F 96% 30.01 in 2.5 mi Calm Calm - 0.00 in   Overcast